QPF
0.00 0.00 0.00 0.00 0.00 0.00 0.00 0.00 0.00 0.00 0.00 0.00 0.00 0.00 0.00 0.00 0.00 0.00 0.00 0.00 0.00 0.00 0.00 0.00 0.00 0.00 0.00 0.00 0.00 0.00 0.00 0.00 0.00 0.00 0.00 0.00 0.00 0.00 0.00 0.00 0.00 0.00 0.00 0.00
0.00 0.00 0.00 0.00 0.00 0.00 0.00 0.00 0.00 0.00 0.00 0.00 0.00 0.00 0.00 0.00 0.00 0.00 0.00 0.00 0.00 0.00 0.00 0.00 0.00 0.00 0.00 0.00 0.00 0.00 0.00 0.00 0.00 0.00 0.00 0.00 0.00 0.00 0.00 0.00 0.00 0.00 0.00 0.00
0.00 0.00 0.00 0.00 0.00 0.00 0.00 0.00 0.00 0.00 0.00 0.00 0.00 0.00 0.00 0.00 0.00 0.00 0.00 0.00 0.00 0.00 0.00 0.00 0.00 0.00 0.00 0.00 0.00 0.00 0.00 0.00 0.00 0.00 0.00 0.00 0.00 0.00 0.00 0.00 0.00 0.00 0.00 0.00
0.00 0.00 0.00 0.00 0.00 0.00 0.00 0.00 0.00 0.00 0.00 0.00 0.00 0.00 0.00 0.00 0.00 0.00 0.00 0.00 0.00 0.00 0.00 0.00 0.00 0.00 0.00 0.00 0.00 0.00 0.00 0.00 0.00 0.00 0.00 0.00 0.00 0.00 0.00 0.00 0.00 0.00 0.00 0.00
0.00 0.00 0.00 0.00 0.00 0.00 0.00 0.00 0.00 0.00 0.00 0.00 0.00 0.00 0.00 0.00 0.00 0.00 0.00 0.00 0.00 0.00 0.00 0.00 0.00 0.00 0.00 0.00 0.00 0.00 0.00 0.00 0.00 0.00 0.00 0.00 0.00 0.00 0.00 0.00 0.00 0.00 0.00 0.00
0.00 0.00 0.00 0.00 0.00 0.00 0.00 0.00 0.00 0.00 0.00 0.00 0.00 0.00 0.00 0.00 0.00 0.00 0.00 0.00 0.00 0.00 0.00 0.00 0.00 0.00 0.00 0.00 0.00 0.00 0.00 0.00 0.00 0.00 0.00 0.00 0.00 0.00 0.00 0.00 0.00 0.00 0.00 0.00
0.00 0.00 0.00 0.00 0.00 0.00 0.00 0.00 0.00 0.00 0.00 0.00 0.00 0.00 0.00 0.00 0.00 0.00 0.00 0.00 0.00 0.00 0.00 0.00 0.00 0.00 0.00 0.00 0.00 0.00 0.00 0.00 0.00 0.00 0.00 0.00 0.00 0.00 0.00 0.00 0.00 0.00 0.00 0.00
0.00 0.00 0.00 0.00 0.00 0.00 0.00 0.00 0.00 0.00 0.00 0.00 0.00 0.00 0.00 0.00 0.00 0.00 0.00 0.00 0.00 0.00 0.00 0.00 0.00 0.00 0.00 0.00 0.00 0.00 0.00 0.00 0.00 0.00 0.00 0.00 0.00 0.00 0.00 0.00 0.00 0.00 0.00 0.00
0.00 0.00 0.00 0.00 0.00 0.00 0.00 0.00 0.00 0.00 0.00 0.00 0.00 0.00 0.00 0.00 0.00 0.00 0.00 0.00 0.00 0.00 0.00 0.00 0.00 0.00 0.00 0.00 0.00 0.00 0.00 0.00 0.00 0.00 0.00 0.00 0.00 0.00 0.00 0.00 0.00 0.00 0.00 0.00
0.00 0.00 0.00 0.00 0.00 0.00 0.00 0.00 0.00 0.00 0.00 0.00 0.00 0.00 0.00 0.00 0.00 0.00 0.00 0.00 0.00 0.00 0.00 0.00 0.00 0.00 0.00 0.00 0.00 0.00 0.00 0.00 0.00 0.00 0.00 0.00 0.00 0.00 0.00 0.00 0.00 0.00 0.00 0.00
0.00 0.00 0.00 0.00 0.00 0.00 0.00 0.00 0.00 0.00 0.00 0.00 0.00 0.00 0.00 0.00 0.00 0.00 0.00 0.00 0.00 0.00 0.00 0.00 0.00 0.00 0.00 0.00 0.00 0.00 0.00 0.00 0.00 0.00 0.00 0.00 0.00 0.00 0.00 0.00 0.00 0.00 0.00 0.00
0.00 0.00 0.00 0.00 0.00 0.00 0.00 0.00 0.00 0.00 0.00 0.00 0.00 0.00 0.00 0.00 0.00 0.00 0.00 0.00 0.00 0.00 0.00 0.00 0.00 0.00 0.00 0.00 0.00 0.00 0.00 0.00 0.00 0.00 0.00 0.00 0.00 0.00 0.00 0.00 0.00 0.00 0.00 0.00
0.00 0.00 0.00 0.00 0.00 0.00 0.00 0.00 0.00 0.00 0.00 0.00 0.00 0.00 0.00 0.00 0.00 0.00 0.00 0.00 0.00 0.00 0.00 0.00 0.00 0.00 0.00 0.00 0.00 0.00 0.00 0.00 0.00 0.00 0.00 0.00 0.00 0.00 0.00 0.00 0.00 0.00 0.00 0.00
0.00 0.00 0.00 0.00 0.00 0.00 0.00 0.00 0.00 0.00 0.00 0.00 0.00 0.00 0.00 0.00 0.00 0.00 0.00 0.00 0.00 0.00 0.00 0.00 0.00 0.00 0.00 0.00 0.00 0.00 0.00 0.00 0.00 0.00 0.00 0.00 0.00 0.00 0.00 0.00 0.00 0.00 0.00 0.00
0.00 0.00 0.00 0.00 0.00 0.00 0.00 0.00 0.00 0.00 0.00 0.00 0.00 0.00 0.00 0.00 0.00 0.00 0.00 0.00 0.00 0.00 0.00 0.00 0.00 0.00 0.00 0.00 0.00 0.00 0.00 0.00 0.00 0.00 0.00 0.00 0.00 0.00 0.00 0.00 0.00 0.00 0.00 0.00
0.00 0.00 0.00 0.00 0.00 0.00 0.00 0.00 0.00 0.00 0.00 0.00 0.00 0.00 0.00 0.00 0.00 0.00 0.00 0.00 0.00 0.00 0.00 0.00 0.00 0.00 0.00 0.00 0.00 0.00 0.00 0.00 0.00 0.00 0.00 0.00 0.00 0.00 0.00 0.00 0.00 0.00 0.00 0.00
0.00 0.00 0.00 0.00 0.00 0.00 0.00 0.00 0.00 0.00 0.00 0.00 0.00 0.00 0.00 0.00 0.00 0.00 0.00 0.00 0.00 0.00 0.00 0.00 0.00 0.00 0.00 0.00 0.00 0.00 0.00 0.00 0.00 0.00 0.00 0.00 0.00 0.00 0.00 0.00 0.00 0.00 0.00 0.00
0.00 0.00 0.00 0.00 0.00 0.00 0.00 0.00 0.00 0.00 0.00 0.00 0.00 0.00 0.00 0.00 0.00 0.00 0.00 0.00 0.00 0.00 0.00 0.00 0.00 0.00 0.00 0.00 0.00 0.00 0.00 0.00 0.00 0.00 0.00 0.00 0.00 0.00 0.00 0.00 0.00 0.00 0.00 0.00
0.00 0.00 0.00 0.00 0.00 0.00 0.00 0.00 0.00 0.00 0.00 0.00 0.00 0.00 0.00 0.00 0.00 0.00 0.00 0.00 0.00 0.00 0.00 0.00 0.00 0.00 0.00 0.00 0.00 0.00 0.00 0.00 0.00 0.00 0.00 0.00 0.00 0.00 0.00 0.00 0.00 0.00 0.00 0.00
0.00 0.00 0.00 0.00 0.00 0.00 0.00 0.00 0.00 0.00 0.00 0.00 0.00 0.00 0.00 0.00 0.00 0.00 0.00 0.00 0.00 0.00 0.00 0.00 0.00 0.00 0.00 0.00 0.00 0.00 0.00 0.00 0.00 0.00 0.00 0.00 0.00 0.00 0.00 0.00 0.00 0.00 0.00 0.00
0.00 0.00 0.00 0.00 0.00 0.00 0.00 0.00 0.00 0.00 0.00 0.00 0.00 0.00 0.00 0.00 0.00 0.00 0.00 0.00 0.00 0.00 0.00 0.00 0.00 0.00 0.00 0.00 0.00 0.00 0.00 0.00 0.00 0.00 0.00 0.00 0.00 0.00 0.00 0.00 0.00 0.00 0.00 0.00
0.00 0.00 0.00 0.00 0.00 0.00 0.00 0.00 0.00 0.00 0.00 0.00 0.00 0.00 0.00 0.00 0.00 0.00 0.00 0.00 0.00 0.00 0.00 0.00 0.00 0.00 0.00 0.00 0.00 0.00 0.00 0.00 0.00 0.00 0.00 0.00 0.00 0.00 0.00 0.00 0.00 0.00 0.00 0.00
0.00 0.00 0.00 0.00 0.00 0.00 0.00 0.00 0.00 0.00 0.00 0.00 0.00 0.00 0.00 0.00 0.00 0.00 0.00 0.00 0.00 0.00 0.00 0.00 0.00 0.00 0.00 0.00 0.00 0.00 0.00 0.00 0.00 0.00 0.00 0.00 0.00 0.00 0.00 0.00 0.00 0.00 0.00 0.00
0.00 0.00 0.00 0.00 0.00 0.00 0.00 0.00 0.00 0.00 0.00 0.00 0.00 0.00 0.00 0.00 0.00 0.00 0.00 0.00 0.00 0.00 0.00 0.00 0.00 0.00 0.00 0.00 0.00 0.00 0.00 0.00 0.00 0.00 0.00 0.00 0.00 0.00 0.00 0.00 0.00 0.00 0.00 0.01
0.00 0.00 0.00 0.00 0.00 0.00 0.00 0.00 0.00 0.00 0.00 0.00 0.00 0.00 0.00 0.00 0.00 0.00 0.00 0.00 0.00 0.00 0.00 0.00 0.00 0.00 0.00 0.00 0.00 0.00 0.00 0.00 0.00 0.00 0.00 0.00 0.00 0.00 0.00 0.00 0.00 0.00 0.00 0.02
0.00 0.00 0.00 0.00 0.00 0.00 0.00 0.00 0.00 0.00 0.00 0.00 0.00 0.00 0.00 0.00 0.00 0.00 0.00 0.00 0.00 0.00 0.00 0.00 0.00 0.00 0.00 0.00 0.00 0.00 0.00 0.00 0.00 0.00 0.00 0.00 0.00 0.00 0.00 0.00 0.00 0.00 0.00 0.00
MSLP
1023.08 1023.64 1024.21 1024.76 1025.24 1025.63 1025.94 1026.17 1026.33 1026.45 1026.55 1026.64 1026.74 1026.86 1027.00 1027.17 1027.38 1027.64 1027.98 1028.40 1028.93 1029.58 1030.33 1031.16 1032.04 1032.91 1033.73 1034.42 1034.95 1035.28 1035.40 1035.32 1035.07 1034.72 1034.31 1033.89 1033.52 1033.21 1032.96 1032.73 1032.50 1032.22 1031.84 1031.34
1023.74 1024.24 1024.72 1025.14 1025.50 1025.76 1025.95 1026.07 1026.13 1026.17 1026.20 1026.22 1026.26 1026.31 1026.38 1026.49 1026.66 1026.89 1027.22 1027.66 1028.23 1028.93 1029.74 1030.64 1031.59 1032.53 1033.41 1034.16 1034.75 1035.13 1035.31 1035.28 1035.09 1034.77 1034.38 1033.97 1033.58 1033.22 1032.91 1032.62 1032.33 1031.99 1031.58 1031.06
1024.39 1024.83 1025.24 1025.57 1025.83 1026.00 1026.09 1026.12 1026.09 1026.04 1025.97 1025.89 1025.82 1025.76 1025.74 1025.78 1025.89 1026.11 1026.45 1026.93 1027.56 1028.33 1029.23 1030.21 1031.22 1032.22 1033.14 1033.93 1034.55 1034.98 1035.21 1035.23 1035.10 1034.83 1034.48 1034.08 1033.67 1033.27 1032.89 1032.52 1032.14 1031.73 1031.26 1030.72
1024.96 1025.36 1025.71 1025.98 1026.17 1026.29 1026.32 1026.28 1026.17 1026.03 1025.84 1025.64 1025.43 1025.23 1025.09 1025.03 1025.09 1025.29 1025.66 1026.21 1026.93 1027.81 1028.81 1029.87 1030.95 1031.98 1032.92 1033.73 1034.37 1034.82 1035.07 1035.15 1035.07 1034.86 1034.55 1034.17 1033.76 1033.32 1032.87 1032.42 1031.95 1031.46 1030.93 1030.35
1025.40 1025.75 1026.06 1026.30 1026.47 1026.55 1026.56 1026.49 1026.33 1026.10 1025.80 1025.45 1025.08 1024.73 1024.45 1024.28 1024.28 1024.47 1024.89 1025.52 1026.36 1027.36 1028.46 1029.62 1030.75 1031.81 1032.76 1033.55 1034.17 1034.62 1034.89 1035.01 1034.97 1034.82 1034.56 1034.21 1033.80 1033.34 1032.84 1032.32 1031.77 1031.20 1030.60 1029.97
1025.68 1025.98 1026.25 1026.48 1026.65 1026.75 1026.77 1026.70 1026.51 1026.22 1025.81 1025.33 1024.80 1024.28 1023.85 1023.57 1023.50 1023.69 1024.15 1024.88 1025.84 1026.97 1028.19 1029.44 1030.62 1031.70 1032.63 1033.39 1033.97 1034.39 1034.65 1034.78 1034.78 1034.68 1034.47 1034.16 1033.77 1033.31 1032.78 1032.21 1031.59 1030.96 1030.30 1029.62
1025.79 1026.04 1026.29 1026.51 1026.71 1026.85 1026.92 1026.88 1026.69 1026.36 1025.87 1025.26 1024.58 1023.91 1023.33 1022.94 1022.81 1022.99 1023.49 1024.31 1025.39 1026.64 1027.97 1029.30 1030.53 1031.62 1032.52 1033.23 1033.76 1034.13 1034.36 1034.48 1034.50 1034.43 1034.27 1034.01 1033.65 1033.21 1032.67 1032.08 1031.43 1030.75 1030.05 1029.33
1025.78 1025.97 1026.19 1026.42 1026.66 1026.86 1026.99 1027.00 1026.84 1026.49 1025.95 1025.25 1024.45 1023.64 1022.92 1022.42 1022.23 1022.39 1022.93 1023.81 1024.99 1026.34 1027.77 1029.17 1030.45 1031.53 1032.41 1033.06 1033.53 1033.85 1034.03 1034.13 1034.16 1034.11 1033.99 1033.77 1033.46 1033.04 1032.52 1031.93 1031.27 1030.57 1029.85 1029.11
1025.70 1025.83 1026.02 1026.25 1026.52 1026.78 1026.98 1027.05 1026.93 1026.59 1026.03 1025.26 1024.37 1023.45 1022.62 1022.03 1021.77 1021.90 1022.45 1023.38 1024.62 1026.05 1027.56 1029.01 1030.32 1031.41 1032.26 1032.87 1033.29 1033.55 1033.69 1033.77 1033.78 1033.75 1033.65 1033.47 1033.20 1032.82 1032.33 1031.76 1031.11 1030.42 1029.69 1028.96
1025.60 1025.68 1025.84 1026.06 1026.35 1026.65 1026.89 1027.02 1026.94 1026.63 1026.05 1025.25 1024.30 1023.30 1022.40 1021.73 1021.41 1021.50 1022.04 1022.98 1024.25 1025.73 1027.28 1028.77 1030.10 1031.20 1032.04 1032.64 1033.02 1033.25 1033.36 1033.41 1033.42 1033.39 1033.31 1033.16 1032.92 1032.57 1032.12 1031.57 1030.95 1030.27 1029.57 1028.84
1025.56 1025.58 1025.69 1025.89 1026.17 1026.47 1026.74 1026.89 1026.84 1026.53 1025.96 1025.15 1024.16 1023.13 1022.17 1021.45 1021.08 1021.14 1021.65 1022.57 1023.84 1025.33 1026.89 1028.41 1029.75 1030.87 1031.73 1032.33 1032.71 1032.94 1033.05 1033.09 1033.10 1033.08 1033.00 1032.87 1032.64 1032.32 1031.89 1031.36 1030.77 1030.12 1029.44 1028.74
1025.59 1025.57 1025.63 1025.77 1026.00 1026.27 1026.50 1026.63 1026.57 1026.26 1025.69 1024.88 1023.89 1022.85 1021.88 1021.13 1020.73 1020.75 1021.22 1022.11 1023.34 1024.80 1026.36 1027.88 1029.25 1030.39 1031.28 1031.92 1032.35 1032.61 1032.74 1032.81 1032.83 1032.81 1032.74 1032.61 1032.39 1032.07 1031.65 1031.14 1030.56 1029.93 1029.27 1028.60
1025.71 1025.64 1025.63 1025.70 1025.84 1026.01 1026.17 1026.23 1026.11 1025.77 1025.19 1024.38 1023.41 1022.39 1021.45 1020.71 1020.30 1020.29 1020.72 1021.56 1022.74 1024.16 1025.69 1027.19 1028.57 1029.76 1030.70 1031.41 1031.91 1032.23 1032.43 1032.54 1032.59 1032.59 1032.52 1032.39 1032.16 1031.84 1031.42 1030.91 1030.33 1029.70 1029.05 1028.39
1025.89 1025.78 1025.69 1025.66 1025.67 1025.71 1025.73 1025.66 1025.45 1025.05 1024.44 1023.64 1022.71 1021.74 1020.84 1020.15 1019.77 1019.76 1020.16 1020.95 1022.07 1023.42 1024.90 1026.38 1027.77 1028.99 1030.00 1030.79 1031.38 1031.80 1032.08 1032.26 1032.36 1032.38 1032.32 1032.18 1031.95 1031.61 1031.17 1030.65 1030.06 1029.42 1028.77 1028.11
1026.08 1025.93 1025.76 1025.60 1025.46 1025.32 1025.16 1024.94 1024.59 1024.10 1023.45 1022.66 1021.78 1020.89 1020.09 1019.48 1019.15 1019.17 1019.57 1020.31 1021.37 1022.66 1024.08 1025.52 1026.90 1028.14 1029.21 1030.09 1030.78 1031.31 1031.68 1031.94 1032.09 1032.15 1032.11 1031.97 1031.72 1031.36 1030.90 1030.36 1029.75 1029.10 1028.43 1027.75
1026.22 1026.03 1025.78 1025.49 1025.18 1024.85 1024.49 1024.08 1023.58 1022.99 1022.30 1021.52 1020.71 1019.92 1019.24 1018.75 1018.51 1018.59 1019.00 1019.73 1020.73 1021.95 1023.30 1024.69 1026.04 1027.30 1028.41 1029.36 1030.14 1030.76 1031.23 1031.56 1031.77 1031.86 1031.84 1031.70 1031.45 1031.08 1030.60 1030.04 1029.41 1028.74 1028.04 1027.33
1026.24 1026.01 1025.68 1025.27 1024.80 1024.28 1023.73 1023.13 1022.48 1021.78 1021.05 1020.30 1019.57 1018.90 1018.36 1018.02 1017.91 1018.08 1018.53 1019.25 1020.22 1021.37 1022.65 1023.97 1025.28 1026.53 1027.66 1028.65 1029.50 1030.19 1030.73 1031.12 1031.38 1031.50 1031.50 1031.37 1031.11 1030.73 1030.25 1029.68 1029.04 1028.35 1027.62 1026.88
1026.04 1025.79 1025.40 1024.89 1024.29 1023.61 1022.88 1022.12 1021.33 1020.55 1019.79 1019.08 1018.44 1017.92 1017.55 1017.37 1017.41 1017.69 1018.20 1018.95 1019.89 1020.98 1022.18 1023.44 1024.69 1025.89 1027.01 1028.01 1028.89 1029.62 1030.20 1030.63 1030.92 1031.07 1031.07 1030.95 1030.69 1030.33 1029.85 1029.29 1028.65 1027.95 1027.21 1026.44
1025.58 1025.32 1024.90 1024.32 1023.62 1022.83 1021.97 1021.08 1020.20 1019.36 1018.60 1017.94 1017.41 1017.03 1016.83 1016.83 1017.03 1017.43 1018.03 1018.80 1019.73 1020.78 1021.92 1023.09 1024.27 1025.41 1026.49 1027.47 1028.34 1029.07 1029.66 1030.11 1030.40 1030.55 1030.56 1030.44 1030.20 1029.85 1029.39 1028.85 1028.23 1027.54 1026.81 1026.03
1024.83 1024.58 1024.14 1023.54 1022.79 1021.93 1020.99 1020.03 1019.09 1018.24 1017.50 1016.90 1016.48 1016.25 1016.22 1016.38 1016.74 1017.27 1017.95 1018.77 1019.70 1020.71 1021.78 1022.88 1023.98 1025.05 1026.07 1027.01 1027.84 1028.56 1029.13 1029.56 1029.85 1029.99 1029.99 1029.87 1029.64 1029.30 1028.88 1028.37 1027.79 1027.14 1026.43 1025.66
1023.80 1023.55 1023.13 1022.53 1021.78 1020.90 1019.94 1018.96 1018.02 1017.18 1016.48 1015.97 1015.66 1015.56 1015.68 1016.00 1016.49 1017.13 1017.89 1018.75 1019.68 1020.66 1021.68 1022.71 1023.74 1024.74 1025.70 1026.58 1027.37 1028.05 1028.59 1029.00 1029.26 1029.38 1029.37 1029.25 1029.02 1028.71 1028.32 1027.86 1027.33 1026.73 1026.07 1025.34
1022.51 1022.27 1021.88 1021.31 1020.58 1019.73 1018.80 1017.85 1016.95 1016.16 1015.53 1015.10 1014.89 1014.91 1015.16 1015.60 1016.20 1016.93 1017.75 1018.64 1019.58 1020.54 1021.51 1022.49 1023.45 1024.39 1025.29 1026.13 1026.87 1027.52 1028.03 1028.41 1028.64 1028.75 1028.73 1028.60 1028.39 1028.10 1027.75 1027.34 1026.87 1026.33 1025.73 1025.06
1021.02 1020.78 1020.41 1019.89 1019.22 1018.44 1017.57 1016.69 1015.86 1015.14 1014.59 1014.25 1014.13 1014.25 1014.59 1015.12 1015.80 1016.59 1017.45 1018.36 1019.29 1020.23 1021.17 1022.10 1023.02 1023.92 1024.77 1025.58 1026.30 1026.92 1027.41 1027.78 1028.01 1028.10 1028.08 1027.96 1027.75 1027.49 1027.17 1026.81 1026.41 1025.94 1025.42 1024.82
1019.40 1019.14 1018.79 1018.31 1017.71 1017.01 1016.24 1015.46 1014.73 1014.10 1013.64 1013.38 1013.34 1013.53 1013.93 1014.52 1015.24 1016.06 1016.94 1017.85 1018.77 1019.69 1020.60 1021.50 1022.39 1023.26 1024.09 1024.89 1025.60 1026.23 1026.73 1027.10 1027.34 1027.45 1027.44 1027.33 1027.15 1026.91 1026.63 1026.31 1025.96 1025.57 1025.12 1024.61
1017.70 1017.41 1017.05 1016.62 1016.09 1015.49 1014.83 1014.16 1013.53 1013.01 1012.64 1012.46 1012.49 1012.74 1013.18 1013.79 1014.53 1015.35 1016.22 1017.12 1018.02 1018.91 1019.79 1020.67 1021.54 1022.40 1023.24 1024.04 1024.77 1025.43 1025.97 1026.37 1026.65 1026.80 1026.82 1026.74 1026.59 1026.38 1026.13 1025.86 1025.56 1025.22 1024.85 1024.41
1015.98 1015.62 1015.26 1014.86 1014.40 1013.89 1013.34 1012.79 1012.29 1011.87 1011.59 1011.49 1011.58 1011.86 1012.32 1012.94 1013.68 1014.49 1015.34 1016.21 1017.08 1017.95 1018.81 1019.66 1020.52 1021.38 1022.23 1023.05 1023.83 1024.53 1025.13 1025.60 1025.94 1026.14 1026.22 1026.20 1026.09 1025.91 1025.70 1025.46 1025.20 1024.92 1024.60 1024.24
Thickness
5705 5705 5691 5682 5677 5677 5676 5673 5671 5665 5647 5640 5645 5646 5646 5630 5616 5612 5608 5599 5589 5579 5568 5550 5535 5521 5508 5496 5485 5473 5461 5449 5437 5424 5410 5396 5380 5361 5342 5323 5305 5291 5279 5267
5704 5688 5677 5673 5670 5670 5670 5669 5669 5661 5641 5639 5647 5648 5651 5642 5623 5615 5610 5601 5592 5580 5566 5546 5531 5517 5504 5491 5477 5465 5452 5439 5425 5410 5396 5380 5364 5346 5327 5308 5292 5277 5264 5251
5697 5680 5673 5672 5671 5669 5668 5666 5663 5656 5646 5636 5636 5661 5650 5633 5621 5614 5607 5601 5594 5581 5566 5545 5529 5515 5500 5485 5470 5455 5442 5428 5414 5399 5383 5367 5350 5332 5314 5297 5281 5265 5251 5237
5685 5675 5672 5671 5668 5666 5669 5658 5653 5648 5647 5654 5638 5656 5664 5641 5628 5617 5608 5601 5592 5580 5565 5547 5528 5512 5495 5478 5461 5447 5433 5419 5404 5388 5372 5355 5338 5321 5302 5284 5269 5255 5240 5225
5680 5673 5672 5671 5666 5661 5662 5653 5650 5646 5646 5649 5642 5648 5668 5638 5641 5635 5620 5607 5594 5579 5562 5543 5524 5506 5487 5469 5453 5438 5424 5410 5394 5378 5360 5343 5325 5306 5289 5274 5260 5246 5231 5215
5674 5670 5670 5668 5661 5658 5656 5653 5649 5646 5650 5656 5646 5644 5659 5656 5648 5637 5622 5608 5594 5575 5556 5537 5518 5498 5480 5462 5446 5430 5416 5401 5385 5368 5350 5332 5314 5296 5281 5266 5253 5238 5223 5208
5675 5670 5666 5663 5664 5661 5660 5666 5669 5667 5664 5663 5636 5636 5655 5657 5643 5631 5621 5607 5591 5570 5550 5531 5511 5492 5475 5457 5440 5423 5409 5394 5376 5359 5341 5322 5304 5287 5272 5259 5245 5231 5217 5203
5680 5676 5667 5663 5664 5664 5659 5661 5657 5648 5653 5658 5639 5641 5665 5650 5634 5620 5609 5599 5585 5566 5547 5528 5509 5489 5470 5451 5434 5418 5403 5386 5368 5350 5332 5315 5297 5280 5264 5251 5237 5223 5209 5195
5683 5675 5659 5657 5655 5657 5658 5655 5646 5648 5640 5635 5654 5656 5660 5644 5632 5621 5610 5596 5581 5562 5543 5524 5504 5484 5465 5446 5429 5412 5397 5380 5361 5343 5326 5309 5291 5274 5259 5245 5231 5218 5204 5190
5676 5672 5659 5652 5651 5644 5650 5651 5645 5643 5637 5639 5653 5653 5654 5660 5654 5635 5617 5601 5583 5560 5540 5521 5500 5479 5460 5441 5424 5408 5391 5373 5355 5338 5321 5303 5285 5269 5255 5241 5228 5215 5201 5188
5663 5670 5659 5653 5653 5659 5644 5641 5641 5639 5635 5632 5637 5658 5667 5662 5653 5639 5627 5609 5587 5562 5540 5519 5498 5477 5456 5438 5421 5405 5387 5369 5351 5334 5316 5299 5282 5266 5252 5239 5226 5214 5201 5188
5656 5666 5670 5661 5648 5645 5650 5651 5646 5644 5638 5625 5626 5649 5671 5657 5646 5633 5623 5609 5588 5563 5540 5518 5496 5474 5454 5436 5420 5402 5383 5365 5347 5330 5313 5296 5280 5265 5251 5238 5226 5213 5201 5188
5648 5658 5668 5662 5649 5638 5641 5640 5638 5636 5633 5626 5623 5656 5667 5650 5640 5629 5618 5607 5585 5560 5537 5515 5494 5474 5454 5435 5418 5400 5381 5362 5345 5327 5311 5295 5279 5264 5251 5239 5227 5214 5202 5189
5642 5652 5665 5676 5675 5666 5649 5638 5630 5632 5633 5633 5633 5657 5673 5663 5653 5642 5624 5606 5584 5559 5536 5515 5495 5475 5455 5435 5417 5399 5380 5361 5343 5326 5310 5294 5279 5263 5250 5239 5228 5216 5204 5192
5636 5647 5654 5658 5652 5648 5650 5645 5631 5634 5644 5643 5657 5652 5663 5667 5659 5645 5627 5606 5579 5557 5537 5517 5498 5478 5456 5435 5416 5398 5379 5361 5343 5326 5310 5293 5277 5262 5250 5239 5229 5218 5207 5194
5630 5638 5640 5647 5642 5636 5636 5643 5639 5634 5637 5640 5643 5648 5666 5664 5650 5634 5621 5601 5577 5560 5540 5521 5501 5479 5457 5437 5418 5399 5380 5361 5343 5326 5309 5292 5277 5262 5251 5241 5232 5221 5210 5198
5628 5632 5637 5651 5640 5636 5654 5669 5647 5642 5645 5646 5646 5661 5670 5653 5641 5633 5623 5602 5584 5567 5546 5525 5504 5482 5460 5439 5419 5399 5380 5361 5343 5326 5309 5293 5277 5264 5253 5244 5235 5225 5215 5204
5626 5629 5634 5640 5642 5640 5691 5670 5662 5653 5655 5652 5657 5664 5663 5654 5642 5629 5621 5609 5591 5571 5550 5529 5507 5484 5462 5439 5418 5399 5380 5361 5345 5328 5311 5295 5279 5266 5255 5247 5238 5229 5220 5209
5617 5624 5628 5623 5636 5658 5680 5661 5652 5649 5662 5668 5656 5659 5659 5635 5625 5634 5623 5607 5595 5575 5553 5532 5509 5485 5462 5439 5418 5399 5381 5364 5347 5331 5315 5299 5283 5270 5259 5250 5243 5235 5225 5216
5601 5609 5615 5607 5620 5641 5685 5664 5653 5652 5658 5678 5662 5659 5653 5624 5635 5647 5623 5602 5587 5570 5549 5528 5505 5483 5462 5440 5419 5400 5385 5369 5352 5336 5319 5303 5288 5275 5265 5256 5247 5238 5230 5222
5599 5601 5603 5605 5611 5646 5670 5646 5643 5648 5670 5677 5664 5658 5646 5631 5640 5630 5609 5594 5579 5562 5542 5522 5502 5483 5464 5442 5421 5403 5388 5373 5357 5339 5323 5308 5294 5281 5270 5260 5251 5243 5234 5227
5619 5609 5606 5608 5607 5638 5648 5639 5648 5671 5674 5667 5660 5654 5644 5640 5630 5609 5599 5584 5570 5554 5536 5519 5502 5484 5463 5443 5423 5407 5392 5377 5359 5342 5327 5314 5300 5287 5274 5265 5256 5248 5240 5233
5626 5634 5631 5629 5648 5661 5650 5657 5661 5657 5658 5658 5652 5648 5641 5633 5626 5608 5592 5578 5565 5551 5535 5518 5502 5483 5464 5445 5427 5411 5396 5378 5361 5346 5332 5319 5306 5293 5281 5270 5261 5254 5246 5238
5623 5621 5623 5623 5646 5654 5648 5650 5651 5648 5648 5653 5648 5642 5635 5628 5623 5608 5591 5576 5563 5550 5535 5518 5502 5485 5467 5448 5429 5414 5397 5379 5364 5350 5337 5324 5311 5299 5287 5276 5266 5257 5250 5242
5634 5614 5617 5626 5646 5645 5653 5651 5652 5651 5649 5646 5644 5638 5631 5624 5618 5605 5590 5576 5564 5550 5535 5519 5505 5490 5473 5452 5433 5415 5398 5381 5367 5354 5341 5327 5314 5303 5291 5281 5270 5261 5252 5245
5620 5620 5622 5644 5653 5645 5659 5660 5653 5648 5648 5647 5642 5638 5629 5618 5614 5602 5589 5578 5564 5550 5536 5520 5507 5493 5476 5456 5437 5419 5401 5385 5371 5357 5345 5332 5319 5306 5293 5283 5274 5265 5255 5248